Location: Unspecified
(0.0000°N, 0.0000°E)
Time: 15:38:37
(UTC+00:00)

CUTE-I - Visible Passes

Search period start: 03 August 2021 00:00
Search period end: 13 August 2021 00:00
Orbit: 811 x 824 km, 98.7° (Epoch: 02 August)

Date Brightness Start Highest point End Pass type
(mag) Time Alt. Az. Time Alt. Az. Time Alt. Az.
03 Aug ? 05:16:02 10° NE 05:20:34 28° ESE 05:25:06 10° SSE visible
04 Aug ? 04:56:00 10° ENE 04:59:07 16° ESE 05:02:15 10° SE visible
04 Aug ? 19:16:40 10° WSW 19:17:59 11° WSW 19:19:18 10° W visible
05 Aug ? 18:52:41 10° SSW 18:56:33 21° WSW 19:00:25 10° NW visible
06 Aug ? 18:30:13 10° S 18:35:05 37° WSW 18:39:56 10° NW visible
07 Aug ? 05:29:27 10° NNE 05:34:28 41° ESE 05:39:27 10° S visible
08 Aug ? 05:08:50 10° NE 05:13:00 23° ESE 05:17:08 10° SSE visible
09 Aug ? 04:49:22 10° ENE 04:51:33 13° ESE 04:53:44 10° SE visible
09 Aug ? 19:07:46 10° SW 19:10:24 14° WSW 19:13:03 10° WNW visible
10 Aug ? 18:44:39 10° SSW 18:48:57 25° WSW 18:53:17 10° NW visible
12 Aug ? 05:22:06 10° NE 05:26:52 33° ESE 05:31:38 10° SSE visible
